W7KKE-3 Weather Reports


Display with metric or nautical units.
time (UTC)temp
F
wind
direction
speed
MPH
gust
MPH
rain 1hr
in
rain 24hr
in
rain mn
in
humidity
%
barometer
mb
20140902211613 69 316 7.0 10.0 0.00 0.00 0.00 67 1015.6
20140902211113 70 301 7.0 10.0 0.00 0.00 0.00 67 1015.6
20140902205613 70 281 8.0 11.0 0.00 0.00 0.00 66 1015.5
20140902205114 70 301 8.0 10.0 0.00 0.00 0.00 66 1015.5
20140902204613 70 292 6.0 9.0 0.00 0.00 0.00 67 1015.4
20140902204113 70 287 5.0 10.0 0.00 0.00 0.00 66 1015.4
20140902203613 70 302 6.0 10.0 0.00 0.00 0.00 66 1015.4
20140902202113 70 282 7.0 10.0 0.00 0.00 0.00 67 1015.3
20140902201613 70 299 7.0 9.0 0.00 0.00 0.00 67 1015.4
20140902201113 70 323 4.0 8.0 0.00 0.00 0.00 67 1015.4
20140902195613 70 298 6.0 10.0 0.00 0.00 0.00 67 1015.4
20140902195115 70 280 6.0 9.0 0.00 0.00 0.00 67 1015.4
20140902194614 70 294 6.0 10.0 0.00 0.00 0.00 68 1015.5
20140902194113 70 327 7.0 10.0 0.00 0.00 0.00 67 1015.6
20140902193613 71 313 8.0 10.0 0.00 0.00 0.00 66 1015.6
20140902191613 72 270 6.0 11.0 0.00 0.00 0.00 64 1015.6
20140902191113 73 287 5.0 11.0 0.00 0.00 0.00 64 1015.6
20140902190613 72 323 5.0 10.0 0.00 0.00 0.00 64 1015.6
20140902190113 72 315 7.0 12.0 0.00 0.00 0.00 64 1015.6
20140902184116 71 309 8.0 13.0 0.00 0.00 0.00 66 1015.4
20140902183613 71 322 8.0 13.0 0.00 0.00 0.00 67 1015.4
20140902181613 71 317 7.0 13.0 0.00 0.00 0.00 69 1015.2
20140902181113 71 336 7.0 13.0 0.00 0.00 0.00 70 1015.1
20140902180613 70 310 8.0 13.0 0.00 0.00 0.00 71 1015.1
20140902180113 70 319 9.0 12.0 0.00 0.00 0.00 72 1015.1
20140902174113 69 315 8.0 13.0 0.00 0.00 0.00 76 1015.0
20140902173613 68 329 9.0 13.0 0.00 0.00 0.00 78 1015.0
20140902173113 68 315 8.0 18.0 0.00 0.00 0.00 78 1015.1
20140902172613 67 326 11.0 18.0 0.00 0.00 0.00 78 1015.0
20140902170613 67 317 8.0 11.0 0.00 0.00 0.00 80 1015.1
20140902170113 66 309 7.0 10.0 0.00 0.00 0.00 81 1015.1
20140902165613 66 336 7.0 10.0 0.00 0.00 0.00 81 1015.2
20140902165113 65 316 7.0 9.0 0.00 0.00 0.00 83 1015.2
20140902164613 64 324 7.0 9.0 0.00 0.00 0.00 84 1015.2
20140902164113 63 313 6.0 9.0 0.00 0.00 0.00 86 1015.2
20140902163613 63 303 7.0 9.0 0.00 0.00 0.00 87 1015.2
20140902163113 62 312 7.0 8.0 0.00 0.00 0.00 88 1015.2
20140902162616 62 315 5.0 7.0 0.00 0.00 0.00 90 1015.2
20140902162113 61 280 4.0 6.0 0.00 0.00 0.00 91 1015.2
20140902161613 60 308 3.0 5.0 0.00 0.00 0.00 91 1015.1
20140902161113 60 0 0.0 0.0 0.00 0.00 0.00 91 1015.2
20140902160613 60 0 0.0 0.0 0.00 0.00 0.00 91 1015.3
20140902160113 60 0 0.0 0.0 0.00 0.00 0.00 91 1015.3
20140902155613 60 0 0.0 0.0 0.00 0.00 0.00 92 1015.3
20140902155113 60 0 0.0 0.0 0.00 0.00 0.00 92 1015.3
20140902154613 59 0 0.0 0.0 0.00 0.00 0.00 92 1015.2
20140902154113 59 0 0.0 0.0 0.00 0.00 0.00 92 1015.2
20140902153613 58 0 0.0 0.0 0.00 0.00 0.00 92 1015.1
20140902153113 58 0 0.0 0.0 0.00 0.00 0.00 92 1015.2
20140902152613 58 0 0.0 0.0 0.00 0.00 0.00 92 1015.2
20140902152113 58 0 0.0 0.0 0.00 0.00 0.00 92 1015.3
20140902151613 57 0 0.0 0.0 0.00 0.00 0.00 92 1015.4
20140902151113 57 0 0.0 0.0 0.00 0.00 0.00 92 1015.4
20140902150613 57 0 0.0 4.0 0.00 0.00 0.00 92 1015.4
20140902143113 56 81 0.0 4.0 0.00 0.00 0.00 92 1015.2
20140902142613 56 81 0.0 4.0 0.00 0.00 0.00 92 1015.2
20140902142113 56 0 0.0 0.0 0.00 0.00 0.00 92 1015.1
20140902141613 56 0 0.0 0.0 0.00 0.00 0.00 92 1015.1
20140902141113 56 0 0.0 0.0 0.00 0.00 0.00 92 1015.1
20140902140613 56 0 0.0 0.0 0.00 0.00 0.00 92 1014.9
20140902140113 56 0 0.0 0.0 0.00 0.00 0.00 92 1014.9
20140902135613 56 0 0.0 0.0 0.00 0.00 0.00 91 1014.9
20140902135113 57 0 0.0 0.0 0.00 0.00 0.00 91 1014.9
20140902134613 57 0 0.0 5.0 0.00 0.00 0.00 91 1014.9
20140902134113 57 0 0.0 5.0 0.00 0.00 0.00 91 1014.9
20140902133613 57 330 3.0 5.0 0.00 0.00 0.00 91 1014.8
20140902133113 57 0 0.0 0.0 0.00 0.00 0.00 91 1014.9
20140902132613 57 0 0.0 0.0 0.00 0.00 0.00 91 1014.9
20140902132113 57 0 0.0 0.0 0.00 0.00 0.00 91 1014.9
20140902131613 57 0 0.0 0.0 0.00 0.00 0.00 91 1014.9
20140902131113 57 0 0.0 0.0 0.00 0.00 0.00 91 1014.8
20140902130114 58 0 0.0 0.0 0.00 0.00 0.00 91 1014.8
20140902125613 58 0 0.0 0.0 0.00 0.00 0.00 91 1014.8
20140902125113 58 0 0.0 5.0 0.00 0.00 0.00 91 1014.9
20140902124613 58 0 0.0 5.0 0.00 0.00 0.00 91 1014.9
20140902124113 58 337 3.0 5.0 0.00 0.00 0.00 91 1014.9
20140902123613 58 319 0.0 3.0 0.00 0.00 0.00 91 1014.8
20140902123113 58 0 0.0 3.0 0.00 0.00 0.00 91 1014.9
20140902122613 58 330 1.0 3.0 0.00 0.00 0.00 91 1014.8
20140902122113 58 323 0.0 10.0 0.00 0.00 0.00 91 1014.8
20140902121613 58 326 0.0 10.0 0.00 0.00 0.00 91 1014.8
20140902121113 58 357 4.0 10.0 0.00 0.00 0.00 91 1014.8
20140902120613 58 2 0.0 6.0 0.00 0.00 0.00 91 1014.7
20140902120116 58 0 0.0 6.0 0.00 0.00 0.00 90 1014.8
20140902115613 58 337 0.0 6.0 0.00 0.00 0.00 90 1014.7
20140902115113 58 310 0.0 4.0 0.00 0.00 0.00 90 1014.8
20140902114613 58 313 0.0 4.0 0.00 0.00 0.00 90 1014.9
20140902114113 58 0 0.0 0.0 0.00 0.00 0.00 90 1014.9
20140902113613 58 0 0.0 0.0 0.00 0.00 0.00 90 1014.9
20140902113113 58 0 0.0 0.0 0.00 0.00 0.00 90 1014.9
20140902112613 58 0 0.0 0.0 0.00 0.00 0.00 90 1014.9
20140902112113 58 0 0.0 0.0 0.00 0.00 0.00 90 1014.8
20140902111613 58 0 0.0 0.0 0.00 0.00 0.00 90 1014.8
20140902111113 58 0 0.0 0.0 0.00 0.00 0.00 90 1014.8
20140902110613 58 0 0.0 0.0 0.00 0.00 0.00 90 1014.7
20140902110113 58 0 0.0 0.0 0.00 0.00 0.00 90 1014.7
20140902105613 59 0 0.0 0.0 0.00 0.00 0.00 90 1014.8
20140902105113 59 0 0.0 0.0 0.00 0.00 0.00 90 1014.7
20140902104613 59 0 0.0 0.0 0.00 0.00 0.00 90 1014.7
20140902104113 59 0 0.0 0.0 0.00 0.00 0.00 89 1014.8
20140902103613 59 0 0.0 0.0 0.00 0.00 0.00 89 1014.8
20140902103113 59 0 0.0 5.0 0.00 0.00 0.00 89 1014.8
20140902102613 59 0 0.0 5.0 0.00 0.00 0.00 89 1014.8
20140902102113 59 340 0.0 5.0 0.00 0.00 0.00 89 1014.8
20140902101613 59 333 0.0 4.0 0.00 0.00 0.00 89 1014.9
20140902101113 59 0 0.0 3.0 0.00 0.00 0.00 89 1014.9
20140902100613 59 331 1.0 3.0 0.00 0.00 0.00 89 1014.9
20140902100113 59 0 0.0 3.0 0.00 0.00 0.00 89 1014.8
20140902095113 59 333 0.0 3.0 0.00 0.00 0.00 89 1014.7
20140902094613 60 0 0.0 6.0 0.00 0.00 0.00 89 1014.8
20140902094113 60 5 0.0 6.0 0.00 0.00 0.00 89 1014.7
20140902093613 60 327 0.0 6.0 0.00 0.00 0.00 89 1014.7
20140902093113 60 329 0.0 6.0 0.00 0.00 0.00 89 1014.8
20140902092613 60 0 0.0 0.0 0.00 0.00 0.00 89 1014.7
20140902092113 60 0 0.0 0.0 0.00 0.00 0.00 88 1014.8
20140902091613 60 0 0.0 0.0 0.00 0.00 0.00 88 1014.8
20140902091113 60 0 0.0 5.0 0.00 0.00 0.00 88 1014.8
20140902090613 60 336 0.0 5.0 0.00 0.00 0.00 88 1014.8
20140902090113 60 334 0.0 5.0 0.00 0.00 0.00 88 1014.8
20140902085613 60 0 0.0 0.0 0.00 0.00 0.00 88 1014.8
20140902085113 60 0 0.0 0.0 0.00 0.00 0.00 88 1014.8
20140902084613 60 0 0.0 0.0 0.00 0.00 0.00 87 1014.9
20140902084113 61 0 0.0 0.0 0.00 0.00 0.00 87 1014.9
20140902083613 61 0 0.0 0.0 0.00 0.00 0.00 87 1014.9
20140902083113 61 0 0.0 3.0 0.00 0.00 0.00 87 1015.0
20140902082613 61 0 0.0 3.0 0.00 0.00 0.00 87 1014.9
20140902082113 62 323 0.0 3.0 0.00 0.00 0.00 87 1014.9
20140902081613 62 0 0.0 0.0 0.00 0.00 0.00 87 1014.9
20140902081113 62 0 0.0 0.0 0.00 0.00 0.00 87 1014.9
20140902080613 62 0 0.0 0.0 0.00 0.00 0.00 87 1015.0
20140902080113 62 0 0.0 0.0 0.00 0.00 0.00 87 1015.0
20140902075613 62 0 0.0 0.0 0.00 0.00 0.00 87 1015.0
20140902075113 63 0 0.0 0.0 0.00 0.00 0.00 87 1015.0
20140902074613 63 0 0.0 0.0 0.00 0.00 0.00 86 1015.0
20140902074113 63 0 0.0 0.0 0.00 0.00 0.00 86 1015.0
20140902073613 63 0 0.0 0.0 0.00 0.00 0.00 86 1015.0
20140902073113 63 0 0.0 0.0 0.00 0.00 0.00 86 1015.0
20140902072613 63 0 0.0 5.0 0.00 0.00 0.00 86 1015.1
20140902072113 63 313 1.0 5.0 0.00 0.00 0.00 86 1015.2
20140902071613 63 316 2.0 5.0 0.00 0.00 0.00 86 1015.2
20140902071113 63 326 0.0 6.0 0.00 0.00 0.00 86 1015.2
20140902070613 63 326 1.0 6.0 0.00 0.00 0.00 86 1015.3
20140902070113 63 323 0.0 6.0 0.00 0.00 0.00 86 1015.3
20140902065613 63 340 2.0 6.0 0.00 0.00 0.00 86 1015.3
20140902065113 63 310 0.0 14.0 0.00 0.00 0.00 86 1015.4
20140902064613 63 338 5.0 14.0 0.00 0.00 0.00 86 1015.4
20140902064113 63 315 6.0 14.0 0.00 0.00 0.00 86 1015.3
20140902063613 63 308 8.0 12.0 0.00 0.00 0.00 86 1015.4
20140902063113 63 326 7.0 10.0 0.00 0.00 0.00 86 1015.4
20140902062613 62 341 1.0 7.0 0.00 0.00 0.00 86 1015.4
20140902062113 62 324 2.0 7.0 0.00 0.00 0.00 85 1015.4
20140902061613 62 313 3.0 7.0 0.00 0.00 0.00 86 1015.4
20140902061113 62 330 5.0 8.0 0.00 0.00 0.00 85 1015.4
20140902060113 61 313 6.0 8.0 0.00 0.00 0.00 85 1015.3
20140902055613 61 12 1.0 4.0 0.00 0.00 0.00 84 1015.3
20140902055113 62 12 0.0 4.0 0.00 0.00 0.00 85 1015.3
20140902054615 61 327 1.0 4.0 0.00 0.00 0.00 85 1015.2
20140902054113 62 0 0.0 0.0 0.00 0.00 0.00 84 1015.2
20140902053613 62 301 0.0 3.0 0.00 0.00 0.00 84 1015.2
20140902053113 62 0 0.0 3.0 0.00 0.00 0.00 84 1015.2
20140902052613 62 72 1.0 3.0 0.00 0.00 0.00 84 1015.2
20140902052113 62 0 0.0 0.0 0.00 0.00 0.00 84 1015.2
20140902051613 62 0 0.0 0.0 0.00 0.00 0.00 83 1015.2
20140902051113 62 0 0.0 0.0 0.00 0.00 0.00 83 1015.3
20140902050613 63 0 0.0 0.0 0.00 0.00 0.00 83 1015.3
20140902050113 63 0 0.0 0.0 0.00 0.00 0.00 83 1015.4
20140902045613 63 0 0.0 3.0 0.00 0.00 0.00 83 1015.4
20140902045113 63 0 0.0 3.0 0.00 0.00 0.00 83 1015.4
20140902044613 63 324 2.0 3.0 0.00 0.00 0.00 83 1015.4
20140902044113 63 0 0.0 0.0 0.00 0.00 0.00 82 1015.4
20140902043613 63 0 0.0 0.0 0.00 0.00 0.00 82 1015.4
20140902043113 63 0 0.0 0.0 0.00 0.00 0.00 82 1015.4
20140902042613 63 0 0.0 0.0 0.00 0.00 0.00 82 1015.4
20140902042114 64 0 0.0 0.0 0.00 0.00 0.00 82 1015.4
20140902041613 64 0 0.0 0.0 0.00 0.00 0.00 81 1015.4
20140902041113 64 0 0.0 0.0 0.00 0.00 0.00 81 1015.4
20140902040613 64 0 0.0 6.0 0.00 0.00 0.00 81 1015.5
20140902040113 64 0 0.0 6.0 0.00 0.00 0.00 81 1015.5
20140902035613 64 338 0.0 6.0 0.00 0.00 0.00 80 1015.6
20140902035113 64 306 0.0 2.0 0.00 0.00 0.00 80 1015.5
20140902034614 65 0 0.0 0.0 0.00 0.00 0.00 80 1015.5
20140902034113 65 0 0.0 0.0 0.00 0.00 0.00 79 1015.4
20140902033613 65 0 0.0 4.0 0.00 0.00 0.00 79 1015.4
20140902033113 65 7 0.0 4.0 0.00 0.00 0.00 79 1015.4
20140902032613 66 4 0.0 4.0 0.00 0.00 0.00 79 1015.4
20140902032113 66 2 0.0 2.0 0.00 0.00 0.00 78 1015.4
20140902031613 66 0 0.0 10.0 0.00 0.00 0.00 78 1015.4
20140902031113 66 2 0.0 10.0 0.00 0.00 0.00 78 1015.4
20140902030613 67 343 0.0 10.0 0.00 0.00 0.00 77 1015.4
20140902030113 67 350 0.0 6.0 0.00 0.00 0.00 77 1015.4
20140902025613 67 354 1.0 6.0 0.00 0.00 0.00 77 1015.5
20140902025113 67 334 2.0 9.0 0.00 0.00 0.00 77 1015.5
20140902024613 68 343 5.0 9.0 0.00 0.00 0.00 77 1015.5
20140902024113 68 340 4.0 9.0 0.00 0.00 0.00 77 1015.4
20140902023613 68 298 5.0 9.0 0.00 0.00 0.00 76 1015.5
20140902023113 68 344 7.0 14.0 0.00 0.00 0.00 76 1015.6
20140902022613 68 319 7.0 14.0 0.00 0.00 0.00 76 1015.6
20140902022113 68 330 8.0 14.0 0.00 0.00 0.00 76 1015.7
20140902021614 68 294 6.0 14.0 0.00 0.00 0.00 76 1015.7
20140902021113 68 317 7.0 14.0 0.00 0.00 0.00 76 1015.8
20140902020613 68 324 7.0 14.0 0.00 0.00 0.00 76 1016.0
20140902020112 69 313 9.0 15.0 0.00 0.00 0.00 75 1016.0
20140902015612 69 320 9.0 15.0 0.00 0.00 0.00 75 1016.0
20140902015113 69 313 8.0 15.0 0.00 0.00 0.00 75 1016.1
20140902014612 69 284 10.0 17.0 0.00 0.00 0.00 75 1016.1
20140902014112 69 313 11.0 17.0 0.00 0.00 0.00 75 1016.1
20140902013612 69 320 10.0 17.0 0.00 0.00 0.00 74 1016.2
20140902013112 69 336 10.0 17.0 0.00 0.00 0.00 74 1016.2
20140902012612 69 320 12.0 18.0 0.00 0.00 0.00 74 1016.3
20140902012113 69 306 11.0 18.0 0.00 0.00 0.00 74 1016.3
20140902011612 69 308 12.0 18.0 0.00 0.00 0.00 73 1016.3
20140902011112 69 294 12.0 16.0 0.00 0.00 0.00 73 1016.4
20140902010612 69 319 11.0 16.0 0.00 0.00 0.00 73 1016.5
20140902010112 69 317 9.0 16.0 0.00 0.00 0.00 73 1016.5
20140902005612 69 345 10.0 14.0 0.00 0.00 0.00 73 1016.5
20140902005112 69 327 10.0 18.0 0.00 0.00 0.00 74 1016.6
20140902004612 69 326 10.0 18.0 0.00 0.00 0.00 74 1016.7
20140902004112 69 308 9.0 18.0 0.00 0.00 0.00 74 1016.6
20140902003612 69 352 10.0 18.0 0.00 0.00 0.00 75 1016.7
20140902003112 69 323 11.0 21.0 0.00 0.00 0.00 75 1016.8
20140902002612 69 312 11.0 21.0 0.00 0.00 0.00 75 1016.8
20140902002112 69 329 13.0 21.0 0.00 0.00 0.00 74 1016.8
20140902001612 69 324 11.0 18.0 0.00 0.00 0.00 74 1016.8
20140902001112 69 313 11.0 18.0 0.00 0.00 0.00 74 1016.8
20140902000612 69 333 12.0 23.0 0.00 0.00 0.00 74 1016.9
20140902000113 70 315 13.0 23.0 0.00 0.00 0.00 74 1016.9
20140901235612 70 308 14.0 23.0 0.00 0.00 0.00 73 1016.9
20140901235112 70 301 14.0 19.0 0.00 0.00 0.00 73 1016.9
20140901234612 70 320 11.0 18.0 0.00 0.00 0.00 73 1017.0
20140901234112 70 302 10.0 18.0 0.00 0.00 0.00 74 1017.0
20140901233612 70 326 12.0 18.0 0.00 0.00 0.00 74 1017.1
20140901233112 70 322 10.0 21.0 0.00 0.00 0.00 74 1017.1
20140901232612 70 316 12.0 21.0 0.00 0.00 0.00 74 1017.2
20140901232112 70 324 12.0 21.0 0.00 0.00 0.00 74 1017.2
20140901231612 70 317 14.0 21.0 0.00 0.00 0.00 75 1017.3
20140901231112 70 320 11.0 21.0 0.00 0.00 0.00 74 1017.2
20140901230612 70 317 12.0 21.0 0.00 0.00 0.00 74 1017.2
20140901230112 70 313 13.0 21.0 0.00 0.00 0.00 73 1017.2
20140901225612 70 329 12.0 19.0 0.00 0.00 0.00 73 1017.2
20140901225112 70 296 11.0 18.0 0.00 0.00 0.00 73 1017.2
20140901224612 70 308 11.0 18.0 0.00 0.00 0.00 73 1017.2
20140901224113 70 302 12.0 18.0 0.00 0.00 0.00 73 1017.2
20140901223612 69 309 12.0 18.0 0.00 0.00 0.00 73 1017.3
20140901223112 69 322 13.0 18.0 0.00 0.00 0.00 73 1017.3
20140901222112 69 315 10.0 16.0 0.00 0.00 0.00 73 1017.2
20140901221612 69 327 10.0 16.0 0.00 0.00 0.00 73 1017.3
20140901221112 69 320 11.0 16.0 0.00 0.00 0.00 72 1017.3
20140901220612 69 315 12.0 18.0 0.00 0.00 0.00 72 1017.3
20140901220112 69 329 12.0 18.0 0.00 0.00 0.00 72 1017.3
20140901215612 69 309 11.0 18.0 0.00 0.00 0.00 72 1017.3
20140901215112 69 327 12.0 18.0 0.00 0.00 0.00 72 1017.3
20140901214612 69 326 11.0 18.0 0.00 0.00 0.00 72 1017.3
20140901214112 69 313 11.0 18.0 0.00 0.00 0.00 71 1017.3
20140901213612 70 319 11.0 18.0 0.00 0.00 0.00 69 1017.4
20140901213112 70 319 11.0 18.0 0.00 0.00 0.00 68 1017.3
20140901212612 70 313 11.0 18.0 0.00 0.00 0.00 67 1017.3
20140901212112 71 313 10.0 16.0 0.00 0.00 0.00 67 1017.3